| time (UTC) | temp C | wind direction | speed KPH | gust KPH | rain 1hr cm | rain 24hr cm | rain mn cm | humidity % | barometer mb |
| 20260504221007 | 31 | 62 | 0.0 | 14.5 | 0.00 | 0.00 | 0.00 | 29 | 1006.5 |
| 20260504220510 | 31 | 232 | 3.2 | 14.5 | 0.00 | 0.00 | 0.00 | 29 | 1006.5 |
| 20260504220005 | 31 | 128 | 0.0 | 11.3 | 0.00 | 0.00 | 0.00 | 29 | 1006.6 |
| 20260504215505 | 32 | 323 | 3.2 | 11.3 | 0.00 | 0.00 | 0.00 | 28 | 1006.7 |
| 20260504215006 | 32 | 84 | 1.6 | 9.7 | 0.00 | 0.00 | 0.00 | 29 | 1006.8 |
| 20260504214506 | 31 | 46 | 0.0 | 12.9 | 0.00 | 0.00 | 0.00 | 28 | 1006.9 |
| 20260504214005 | 31 | 105 | 1.6 | 12.9 | 0.00 | 0.00 | 0.00 | 28 | 1007.0 |
| 20260504213502 | 31 | 37 | 1.6 | 19.3 | 0.00 | 0.00 | 0.00 | 29 | 1007.0 |
| 20260504213002 | 31 | 105 | 6.4 | 19.3 | 0.00 | 0.00 | 0.00 | 29 | 1007.2 |
| 20260504212501 | 31 | 102 | 9.7 | 17.7 | 0.00 | 0.00 | 0.00 | 29 | 1007.1 |
| 20260504212102 | 31 | 354 | 3.2 | 12.9 | 0.00 | 0.00 | 0.00 | 29 | 1007.2 |
| 20260504211600 | 31 | 306 | 0.0 | 14.5 | 0.00 | 0.00 | 0.00 | 29 | 1007.3 |
| 20260504211059 | 31 | 316 | 4.8 | 14.5 | 0.00 | 0.00 | 0.00 | 29 | 1007.5 |
| 20260504210558 | 31 | 341 | 0.0 | 11.3 | 0.00 | 0.00 | 0.00 | 29 | 1007.6 |
| 20260504210059 | 31 | 117 | 4.8 | 12.9 | 0.00 | 0.00 | 0.00 | 30 | 1007.8 |
| 20260504205556 | 31 | 94 | 4.8 | 12.9 | 0.00 | 0.00 | 0.00 | 30 | 1007.9 |
| 20260504205058 | 31 | 75 | 4.8 | 14.5 | 0.00 | 0.00 | 0.00 | 29 | 1008.0 |
| 20260504204554 | 31 | 72 | 3.2 | 14.5 | 0.00 | 0.00 | 0.00 | 29 | 1008.1 |
| 20260504204056 | 31 | 333 | 0.0 | 11.3 | 0.00 | 0.00 | 0.00 | 28 | 1008.2 |
| 20260504203552 | 31 | 60 | 3.2 | 11.3 | 0.00 | 0.00 | 0.00 | 30 | 1008.4 |
| 20260504203056 | 31 | 320 | 0.0 | 8.0 | 0.00 | 0.00 | 0.00 | 30 | 1008.5 |
| 20260504202549 | 31 | 108 | 1.6 | 16.1 | 0.00 | 0.00 | 0.00 | 30 | 1008.5 |
| 20260504202049 | 30 | 94 | 4.8 | 16.1 | 0.00 | 0.00 | 0.00 | 30 | 1008.6 |
| 20260504201601 | 30 | 61 | 3.2 | 12.9 | 0.00 | 0.00 | 0.00 | 30 | 1008.7 |
| 20260504201051 | 30 | 114 | 1.6 | 12.9 | 0.00 | 0.00 | 0.00 | 31 | 1008.7 |
| 20260504200546 | 30 | 77 | 3.2 | 14.5 | 0.00 | 0.00 | 0.00 | 31 | 1008.8 |
| 20260504200047 | 30 | 46 | 4.8 | 14.5 | 0.00 | 0.00 | 0.00 | 31 | 1008.9 |
| 20260504195545 | 30 | 100 | 1.6 | 20.9 | 0.00 | 0.00 | 0.00 | 30 | 1009.0 |
| 20260504195046 | 30 | 128 | 6.4 | 20.9 | 0.00 | 0.00 | 0.00 | 32 | 1009.0 |
| 20260504194549 | 30 | 228 | 0.0 | 11.3 | 0.00 | 0.00 | 0.00 | 31 | 1009.0 |
| 20260504194044 | 30 | 301 | 3.2 | 20.9 | 0.00 | 0.00 | 0.00 | 32 | 1009.2 |
| 20260504193543 | 30 | 304 | 6.4 | 20.9 | 0.00 | 0.00 | 0.00 | 31 | 1009.3 |
| 20260504193043 | 30 | 155 | 1.6 | 14.5 | 0.00 | 0.00 | 0.00 | 29 | 1009.3 |
| 20260504192540 | 30 | 86 | 3.2 | 19.3 | 0.00 | 0.00 | 0.00 | 30 | 1009.3 |
| 20260504192039 | 29 | 56 | 6.4 | 19.3 | 0.00 | 0.00 | 0.00 | 32 | 1009.4 |
| 20260504191543 | 29 | 107 | 1.6 | 19.3 | 0.00 | 0.00 | 0.00 | 33 | 1009.6 |
| 20260504191037 | 29 | 310 | 3.2 | 14.5 | 0.00 | 0.00 | 0.00 | 32 | 1009.7 |
| 20260504190538 | 28 | 99 | 1.6 | 14.5 | 0.00 | 0.00 | 0.00 | 34 | 1009.7 |
| 20260504190034 | 28 | 123 | 3.2 | 16.1 | 0.00 | 0.00 | 0.00 | 35 | 1009.9 |
| 20260504185536 | 28 | 83 | 3.2 | 14.5 | 0.00 | 0.00 | 0.00 | 36 | 1010.0 |
| 20260504185033 | 28 | 316 | 3.2 | 19.3 | 0.00 | 0.00 | 0.00 | 35 | 1009.9 |
| 20260504184538 | 28 | 44 | 6.4 | 19.3 | 0.00 | 0.00 | 0.00 | 35 | 1010.1 |
| 20260504184032 | 28 | 114 | 4.8 | 17.7 | 0.00 | 0.00 | 0.00 | 35 | 1010.3 |
| 20260504183530 | 28 | 99 | 8.0 | 22.5 | 0.00 | 0.00 | 0.00 | 36 | 1010.4 |
| 20260504183030 | 28 | 89 | 8.0 | 22.5 | 0.00 | 0.00 | 0.00 | 37 | 1010.4 |
| 20260504182531 | 28 | 74 | 3.2 | 22.5 | 0.00 | 0.00 | 0.00 | 36 | 1010.5 |
| 20260504182029 | 28 | 117 | 8.0 | 22.5 | 0.00 | 0.00 | 0.00 | 36 | 1010.6 |
| 20260504181532 | 28 | 82 | 4.8 | 16.1 | 0.00 | 0.00 | 0.00 | 38 | 1010.7 |
| 20260504181029 | 28 | 44 | 4.8 | 16.1 | 0.00 | 0.00 | 0.00 | 39 | 1010.8 |
| 20260504180527 | 27 | 45 | 4.8 | 24.1 | 0.00 | 0.00 | 0.00 | 39 | 1010.9 |
| 20260504180024 | 28 | 91 | 9.7 | 24.1 | 0.00 | 0.00 | 0.00 | 39 | 1011.2 |
| 20260504175523 | 28 | 84 | 6.4 | 19.3 | 0.00 | 0.00 | 0.00 | 40 | 1011.3 |
| 20260504175022 | 27 | 102 | 4.8 | 17.7 | 0.00 | 0.00 | 0.00 | 40 | 1011.4 |
| 20260504174522 | 27 | 61 | 6.4 | 20.9 | 0.00 | 0.00 | 0.00 | 40 | 1011.4 |
| 20260504174021 | 27 | 125 | 6.4 | 20.9 | 0.00 | 0.00 | 0.00 | 42 | 1011.5 |
| 20260504173518 | 27 | 18 | 1.6 | 11.3 | 0.00 | 0.00 | 0.00 | 42 | 1011.5 |
| 20260504173021 | 26 | 300 | 1.6 | 12.9 | 0.00 | 0.00 | 0.00 | 44 | 1011.7 |
| 20260504172518 | -17 | 0.0 | 0.0 | 0.00 | 0.00 | 0.00 | 1011.8 | ||
| 20260504172018 | -17 | 0.0 | 0.0 | 0.00 | 0.00 | 0.00 | 1012.0 | ||
| 20260504171517 | -17 | 0.0 | 0.0 | 0.00 | 0.00 | 0.00 | 1012.1 | ||
| 20260504171019 | -17 | 0.0 | 0.0 | 0.00 | 0.00 | 0.00 | 1012.1 | ||
| 20260504170516 | -17 | 0.0 | 0.0 | 0.00 | 0.00 | 0.00 | 1012.1 | ||
| 20260504151015 | -17 | 0.0 | 0.0 | 0.00 | 0.00 | 0.00 | 1013.2 | ||
| 20260504150514 | -17 | 0.0 | 0.0 | 0.00 | 0.00 | 0.00 | 1013.1 | ||
| 20260504141058 | -17 | 0.0 | 0.0 | 0.00 | 0.00 | 0.00 | 1013.1 | ||
| 20260504140557 | -17 | 0.0 | 0.0 | 0.00 | 0.00 | 0.00 | 1013.1 | ||
| 20260504140109 | -17 | 0.0 | 0.0 | 0.00 | 0.00 | 0.00 | 1013.1 | ||
| 20260504130539 | -17 | 0.0 | 0.0 | 0.00 | 0.00 | 0.00 | 1012.9 | ||
| 20260504050509 | 17 | 86 | 0.0 | 9.7 | 0.00 | 0.00 | 0.00 | 74 | 1013.0 |
| 20260504050009 | 17 | 86 | 1.6 | 9.7 | 0.00 | 0.00 | 0.00 | 73 | 1013.0 |
| 20260504045509 | 17 | 97 | 0.0 | 6.4 | 0.00 | 0.00 | 0.00 | 73 | 1013.0 |
| 20260504045007 | 17 | 59 | 0.0 | 8.0 | 0.00 | 0.00 | 0.00 | 73 | 1012.9 |
| 20260504044508 | 17 | 34 | 1.6 | 8.0 | 0.00 | 0.00 | 0.00 | 72 | 1012.9 |
| 20260504044007 | 17 | 57 | 0.0 | 6.4 | 0.00 | 0.00 | 0.00 | 72 | 1012.8 |
| 20260504043507 | 17 | 37 | 0.0 | 6.4 | 0.00 | 0.00 | 0.00 | 71 | 1012.8 |
| 20260504043008 | 17 | 76 | 0.0 | 3.2 | 0.00 | 0.00 | 0.00 | 71 | 1012.7 |
| 20260504042507 | 17 | 92 | 0.0 | 0.0 | 0.00 | 0.00 | 0.00 | 71 | 1012.7 |
| 20260504042006 | 17 | 95 | 0.0 | 3.2 | 0.00 | 0.00 | 0.00 | 70 | 1012.6 |
| 20260504041507 | 17 | 95 | 0.0 | 4.8 | 0.00 | 0.00 | 0.00 | 70 | 1012.5 |
| 20260504041006 | 18 | 98 | 1.6 | 4.8 | 0.00 | 0.00 | 0.00 | 69 | 1012.3 |
| 20260504040506 | 18 | 77 | 0.0 | 6.4 | 0.00 | 0.00 | 0.00 | 69 | 1012.2 |
| 20260504040007 | 18 | 115 | 0.0 | 6.4 | 0.00 | 0.00 | 0.00 | 68 | 1012.2 |
| 20260504035508 | 18 | 85 | 1.6 | 4.8 | 0.00 | 0.00 | 0.00 | 68 | 1012.0 |
| 20260504035006 | 18 | 89 | 0.0 | 4.8 | 0.00 | 0.00 | 0.00 | 67 | 1011.7 |
| 20260504034512 | 18 | 100 | 0.0 | 8.0 | 0.00 | 0.00 | 0.00 | 67 | 1011.6 |
| 20260504034004 | 18 | 75 | 0.0 | 6.4 | 0.00 | 0.00 | 0.00 | 66 | 1011.5 |
| 20260504033505 | 19 | 97 | 1.6 | 6.4 | 0.00 | 0.00 | 0.00 | 65 | 1011.3 |
| 20260504033014 | 19 | 111 | 0.0 | 8.0 | 0.00 | 0.00 | 0.00 | 65 | 1011.2 |
| 20260504032505 | 20 | 131 | 1.6 | 8.0 | 0.00 | 0.00 | 0.00 | 64 | 1011.1 |
| 20260504032004 | 20 | 151 | 0.0 | 8.0 | 0.00 | 0.00 | 0.00 | 62 | 1011.0 |
| 20260504031507 | 20 | 88 | 1.6 | 9.7 | 0.00 | 0.00 | 0.00 | 61 | 1010.8 |
| 20260504031005 | 21 | 67 | 3.2 | 11.3 | 0.00 | 0.00 | 0.00 | 59 | 1010.5 |
| 20260504030504 | 21 | 104 | 4.8 | 11.3 | 0.00 | 0.00 | 0.00 | 58 | 1010.4 |
| 20260504030002 | 21 | 103 | 0.0 | 8.0 | 0.00 | 0.00 | 0.00 | 58 | 1010.1 |
| 20260504025502 | 21 | 309 | 0.0 | 6.4 | 0.00 | 0.00 | 0.00 | 57 | 1009.9 |
| 20260504025002 | 22 | 257 | 0.0 | 4.8 | 0.00 | 0.00 | 0.00 | 57 | 1009.8 |
| 20260504024504 | 22 | 136 | 0.0 | 4.8 | 0.00 | 0.00 | 0.00 | 56 | 1009.7 |
| 20260504024004 | 22 | 89 | 0.0 | 6.4 | 0.00 | 0.00 | 0.00 | 55 | 1009.4 |
| 20260504023501 | 22 | 349 | 0.0 | 6.4 | 0.00 | 0.00 | 0.00 | 54 | 1009.3 |
| 20260504023002 | 22 | 251 | 0.0 | 6.4 | 0.00 | 0.00 | 0.00 | 53 | 1009.2 |
| 20260504022501 | 22 | 221 | 0.0 | 6.4 | 0.00 | 0.00 | 0.00 | 54 | 1009.1 |
| 20260504022003 | 22 | 231 | 1.6 | 14.5 | 0.00 | 0.00 | 0.00 | 55 | 1009.2 |
| 20260504021500 | 22 | 214 | 0.0 | 14.5 | 0.00 | 0.00 | 0.00 | 56 | 1008.9 |
| 20260504021000 | 22 | 172 | 4.8 | 14.5 | 0.00 | 0.00 | 0.00 | 56 | 1008.8 |
| 20260504020500 | 22 | 181 | 1.6 | 12.9 | 0.00 | 0.00 | 0.00 | 55 | 1008.8 |
| 20260504020100 | 23 | 247 | 1.6 | 12.9 | 0.00 | 0.00 | 0.00 | 53 | 1008.7 |
| 20260504015600 | 23 | 195 | 1.6 | 14.5 | 0.00 | 0.00 | 0.00 | 52 | 1008.4 |
| 20260504015100 | 24 | 163 | 4.8 | 11.3 | 0.00 | 0.00 | 0.00 | 50 | 1008.2 |
| 20260504014601 | 25 | 281 | 4.8 | 11.3 | 0.00 | 0.00 | 0.00 | 47 | 1008.1 |
| 20260504014059 | 25 | 251 | 4.8 | 11.3 | 0.00 | 0.00 | 0.00 | 45 | 1007.9 |
| 20260504013559 | 26 | 259 | 4.8 | 11.3 | 0.00 | 0.00 | 0.00 | 40 | 1007.9 |
| 20260504013112 | 26 | 115 | 0.0 | 0.0 | 0.00 | 0.00 | 0.00 | 36 | 1007.7 |
| 20260504012600 | 26 | 115 | 0.0 | 0.0 | 0.00 | 0.00 | 0.00 | 36 | 1007.6 |
| 20260504012101 | 26 | 115 | 0.0 | 0.0 | 0.00 | 0.00 | 0.00 | 35 | 1007.5 |
| 20260504011558 | 27 | 115 | 0.0 | 1.6 | 0.00 | 0.00 | 0.00 | 34 | 1007.5 |
| 20260504011058 | 27 | 77 | 0.0 | 1.6 | 0.00 | 0.00 | 0.00 | 34 | 1007.3 |
| 20260504010559 | 27 | 119 | 0.0 | 1.6 | 0.00 | 0.00 | 0.00 | 33 | 1007.3 |
| 20260504005558 | 28 | 119 | 0.0 | 1.6 | 0.00 | 0.00 | 0.00 | 33 | 1007.1 |
| 20260504005058 | 28 | 119 | 0.0 | 6.4 | 0.00 | 0.00 | 0.00 | 33 | 1007.0 |
| 20260504004621 | 28 | 110 | 0.0 | 6.4 | 0.00 | 0.00 | 0.00 | 33 | 1007.0 |
| 20260504004057 | 28 | 90 | 0.0 | 6.4 | 0.00 | 0.00 | 0.00 | 33 | 1006.9 |
| 20260504003557 | 28 | 117 | 0.0 | 6.4 | 0.00 | 0.00 | 0.00 | 33 | 1007.0 |
| 20260504003102 | 28 | 100 | 1.6 | 6.4 | 0.00 | 0.00 | 0.00 | 32 | 1006.9 |
| 20260504002556 | 28 | 135 | 0.0 | 6.4 | 0.00 | 0.00 | 0.00 | 32 | 1006.9 |
| 20260504002059 | 29 | 110 | 0.0 | 8.0 | 0.00 | 0.00 | 0.00 | 31 | 1006.8 |
| 20260504001601 | 29 | 84 | 1.6 | 14.5 | 0.00 | 0.00 | 0.00 | 31 | 1006.8 |
| 20260504001100 | 29 | 125 | 1.6 | 14.5 | 0.00 | 0.00 | 0.00 | 29 | 1006.6 |
| 20260504000556 | 29 | 96 | 1.6 | 12.9 | 0.00 | 0.00 | 0.00 | 30 | 1006.6 |
| 20260504000055 | 30 | 102 | 4.8 | 12.9 | 0.00 | 0.00 | 0.00 | 30 | 1006.6 |
| 20260503235555 | 30 | 113 | 1.6 | 17.7 | 0.00 | 0.00 | 0.00 | 30 | 1006.4 |
| 20260503235058 | 30 | 67 | 8.0 | 17.7 | 0.00 | 0.00 | 0.00 | 29 | 1006.5 |
| 20260503234554 | 30 | 131 | 6.4 | 12.9 | 0.00 | 0.00 | 0.00 | 29 | 1006.4 |
| 20260503234054 | 30 | 37 | 1.6 | 9.7 | 0.00 | 0.00 | 0.00 | 29 | 1006.4 |
| 20260503233554 | 30 | 94 | 0.0 | 9.7 | 0.00 | 0.00 | 0.00 | 29 | 1006.4 |
| 20260503233055 | 30 | 108 | 1.6 | 9.7 | 0.00 | 0.00 | 0.00 | 29 | 1006.5 |
| 20260503232554 | 30 | 63 | 1.6 | 9.7 | 0.00 | 0.00 | 0.00 | 29 | 1006.5 |
| 20260503232056 | 30 | 27 | 1.6 | 12.9 | 0.00 | 0.00 | 0.00 | 30 | 1006.5 |
| 20260503231556 | 30 | 75 | 3.2 | 12.9 | 0.00 | 0.00 | 0.00 | 30 | 1006.5 |
| 20260503231057 | 29 | 285 | 3.2 | 12.9 | 0.00 | 0.00 | 0.00 | 28 | 1006.4 |
| 20260503230553 | 29 | 91 | 1.6 | 12.9 | 0.00 | 0.00 | 0.00 | 28 | 1006.5 |
| 20260503230053 | 30 | 191 | 0.0 | 12.9 | 0.00 | 0.00 | 0.00 | 28 | 1006.5 |
| 20260503225551 | 30 | 143 | 4.8 | 12.9 | 0.00 | 0.00 | 0.00 | 28 | 1006.5 |
| 20260503225051 | 30 | 110 | 0.0 | 8.0 | 0.00 | 0.00 | 0.00 | 27 | 1006.5 |
| 20260503224550 | 30 | 294 | 1.6 | 11.3 | 0.00 | 0.00 | 0.00 | 28 | 1006.7 |
| 20260503224049 | 30 | 95 | 0.0 | 12.9 | 0.00 | 0.00 | 0.00 | 29 | 1006.7 |
| 20260503223549 | 30 | 93 | 0.0 | 19.3 | 0.00 | 0.00 | 0.00 | 29 | 1006.8 |
| 20260503223049 | 31 | 56 | 6.4 | 19.3 | 0.00 | 0.00 | 0.00 | 29 | 1006.7 |
| 20260503222549 | 31 | 70 | 6.4 | 19.3 | 0.00 | 0.00 | 0.00 | 29 | 1006.8 |
| 20260503222050 | 30 | 65 | 1.6 | 11.3 | 0.00 | 0.00 | 0.00 | 28 | 1006.7 |
| 20260503221552 | 30 | 94 | 0.0 | 11.3 | 0.00 | 0.00 | 0.00 | 28 | 1006.9 |